Starlink 1830

operational
NORAD ID: 46727 Int'l Des: 2020-073 Owner: SPXS Country: US Constellation: starlink
LEOCIRCULARSTARLINK_TYPE

About Starlink 1830

Description loading...

Live Position

Loading 3D Globe...

Upcoming Passes

Altitude History

Altitude vs Time

uPlot chart will show altitude changes over time

Two-Line Element Set

1 46727U 20073BK 25345.20502315 .00107311 00000-0 29664-2 0 9997
2 46727 53.0516 244.9398 0012288 99.6011 260.6379 15.36134020284275
Epoch: Dec 11, 2025 • Age: 20 hours

Current Status

Altitude 474.3 km
Velocity 7.63 km/s
Sub-Earth Point -37.75°S, 5.71°E
Launch Date Oct 18, 2020
Age 5.1 years
Type internet

Technical Details

Classification Payload
Mass 260.00 kg
Dry Mass 248.00 kg
Total Mass 260.00 kg
Length 0.20 m
Diameter 2.80 m
Span 9.00 m
Shape Box + pan
Manufacturer SPXS
Bus Type Starlink
Phase Status In Orbit
Owner/State SPXS/US

Large Constellations

Loading constellations...